When you browse on this site, cookies collect data to enhance your experience and personalize the content and advertising you see.
Visit our Privacy Policy to learn more. By continuing to use the site, you agree to this use of cookies and data.
  • In Czech Republic
  • List of Countries
  • For 7 days
  • Water Temperature
  • Satellite Maps
  • Weather Map
  • Weather Widgets
  • user-avatar
    Login

    Hourly Weather Santiago del Estero

    Today, 21 January, Monday

    Time Temperature Precipitation Wind Pressure Humidity
    00:00 +23°C° 0 mm 4 mps 741 mmHg 73%
    01:00 +24°C° 0 mm 3 mps 740 mmHg 75%
    02:00 +22°C° 0 mm 3 mps 740 mmHg 78%
    03:00 +22°C° 0 mm 3 mps 740 mmHg 80%
    04:00 +22°C° 0 mm 3 mps 740 mmHg 81%
    05:00 +21°C° 0 mm 3 mps 740 mmHg 83%
    06:00 +24°C° 0 mm 3 mps 741 mmHg 79%
    07:00 +25°C° 0 mm 3 mps 741 mmHg 74%
    08:00 +27°C° 0 mm 4 mps 741 mmHg 72%
    09:00 +29°C° 0 mm 4 mps 741 mmHg 65%
    10:00 +32°C° 0 mm 4 mps 741 mmHg 58%
    11:00 +34°C° 0 mm 5 mps 741 mmHg 52%
    12:00 +35°C° 0 mm 5 mps 741 mmHg 48%
    13:00 +36°C° 0 mm 4 mps 741 mmHg 45%
    14:00 +37°C° 0 mm 4 mps 740 mmHg 42%
    15:00 +37°C° 0 mm 4 mps 740 mmHg 41%
    16:00 +38°C° 0 mm 4 mps 739 mmHg 40%
    17:00 +38°C° 0 mm 3 mps 739 mmHg 40%
    18:00 +36°C° 0 mm 3 mps 739 mmHg 44%
    19:00 +34°C° 0 mm 2 mps 739 mmHg 49%
    20:00 +31°C° 0 mm 1 mps 739 mmHg 54%
    21:00 +30°C° 0 mm 2 mps 740 mmHg 57%
    22:00 +30°C° 0 mm 3 mps 740 mmHg 60%
    23:00 +29°C° 0 mm 4 mps 741 mmHg 63%

    Tomorrow, 22 January, Tuesday

    Time Temperature Precipitation Wind Pressure Humidity
    00:00 +28°C° 0 mm 3 mps 740 mmHg 66%
    01:00 +28°C° 0 mm 3 mps 740 mmHg 69%
    02:00 +27°C° 0 mm 3 mps 740 mmHg 72%
    03:00 +27°C° 0 mm 2 mps 740 mmHg 73%
    04:00 +26°C° 0 mm 2 mps 739 mmHg 74%
    05:00 +26°C° 0 mm 2 mps 739 mmHg 75%
    06:00 +27°C° 0 mm 3 mps 739 mmHg 71%
    07:00 +28°C° 0 mm 3 mps 739 mmHg 67%
    08:00 +30°C° 0 mm 4 mps 739 mmHg 62%
    09:00 +33°C° 0 mm 4 mps 739 mmHg 56%
    10:00 +35°C° 0 mm 4 mps 739 mmHg 49%
    11:00 +37°C° 0 mm 4 mps 739 mmHg 43%
    12:00 +38°C° 0 mm 4 mps 738 mmHg 40%
    13:00 +41°C° 0 mm 5 mps 738 mmHg 37%
    14:00 +42°C° 0 mm 6 mps 737 mmHg 33%
    15:00 +42°C° 0 mm 5 mps 737 mmHg 32%
    16:00 +43°C° 0 mm 5 mps 736 mmHg 32%
    17:00 +43°C° 0 mm 4 mps 735 mmHg 31%
    18:00 +41°C° 0 mm 4 mps 736 mmHg 34%
    19:00 +38°C° 0 mm 3 mps 736 mmHg 38%
    20:00 +35°C° 0 mm 2 mps 736 mmHg 41%
    21:00 +35°C° 0 mm 2 mps 737 mmHg 43%
    22:00 +34°C° 0 mm 2 mps 737 mmHg 45%
    23:00 +34°C° 0 mm 3 mps 738 mmHg 47%

    Day after tomorrow, 23 January, Wednesday

    Time Temperature Precipitation Wind Pressure Humidity
    00:00 +32°C° 0 mm 2 mps 737 mmHg 49%
    01:00 +31°C° 0 mm 2 mps 737 mmHg 52%
    02:00 +31°C° 0 mm 1 mps 737 mmHg 55%
    03:00 +30°C° 0 mm 2 mps 737 mmHg 54%
    04:00 +30°C° 0 mm 2 mps 737 mmHg 54%
    05:00 +30°C° 0 mm 2 mps 737 mmHg 54%
    06:00 +31°C° 0 mm 3 mps 738 mmHg 54%
    07:00 +33°C° 0 mm 3 mps 739 mmHg 55%
    08:00 +33°C° 0 mm 3 mps 740 mmHg 55%
    09:00 +35°C° 0 mm 4 mps 740 mmHg 49%
    10:00 +39°C° 0 mm 5 mps 740 mmHg 43%
    11:00 +41°C° 0 mm 5 mps 740 mmHg 37%
    12:00 +42°C° 0 mm 5 mps 739 mmHg 34%
    13:00 +44°C° 0 mm 6 mps 739 mmHg 32%
    14:00 +45°C° 0 mm 6 mps 738 mmHg 29%
    15:00 +45°C° 0 mm 5 mps 738 mmHg 29%
    16:00 +45°C° 0 mm 5 mps 737 mmHg 29%
    17:00 +44°C° 0 mm 4 mps 736 mmHg 29%
    18:00 +42°C° 0 mm 4 mps 736 mmHg 33%
    19:00 +39°C° 0 mm 3 mps 737 mmHg 36%
    20:00 +37°C° 0 mm 3 mps 737 mmHg 40%
    21:00 +36°C° 0 mm 3 mps 737 mmHg 42%
    22:00 +36°C° 0 mm 4 mps 738 mmHg 44%
    23:00 +35°C° 0 mm 4 mps 738 mmHg 47%

    24 January, Thursday

    Time Temperature Precipitation Wind Pressure Humidity
    00:00 +34°C° 0 mm 3 mps 738 mmHg 49%
    01:00 +32°C° 0 mm 2 mps 738 mmHg 51%
    02:00 +31°C° 0 mm 2 mps 737 mmHg 53%
    03:00 +31°C° 0 mm 2 mps 737 mmHg 53%
    04:00 +31°C° 0 mm 3 mps 737 mmHg 53%
    05:00 +31°C° 0 mm 3 mps 737 mmHg 53%
    06:00 +31°C° 0 mm 3 mps 738 mmHg 53%
    07:00 +33°C° 0 mm 4 mps 738 mmHg 53%
    08:00 +34°C° 0 mm 4 mps 739 mmHg 53%
    09:00 +36°C° 0 mm 4 mps 739 mmHg 47%
    10:00 +39°C° 0 mm 5 mps 739 mmHg 42%
    11:00 +41°C° 0 mm 5 mps 739 mmHg 37%
    12:00 +42°C° 0 mm 6 mps 738 mmHg 34%
    13:00 +44°C° 0 mm 6 mps 738 mmHg 32%
    14:00 +45°C° 0 mm 7 mps 737 mmHg 29%
    15:00 +45°C° 0 mm 6 mps 736 mmHg 29%
    16:00 +45°C° 0 mm 5 mps 736 mmHg 29%
    17:00 +45°C° 0 mm 4 mps 735 mmHg 28%
    18:00 +43°C° 0 mm 4 mps 735 mmHg 31%
    19:00 +41°C° 0 mm 4 mps 735 mmHg 33%
    20:00 +38°C° 0 mm 3 mps 736 mmHg 35%
    21:00 +38°C° 0 mm 4 mps 736 mmHg 39%
    22:00 +37°C° 0 mm 4 mps 737 mmHg 42%
    23:00 +36°C° 0 mm 5 mps 737 mmHg 46%

    25 January, Friday

    Time Temperature Precipitation Wind Pressure Humidity
    00:00 +36°C° 0 mm 4 mps 737 mmHg 45%
    01:00 +35°C° 0 mm 4 mps 736 mmHg 44%
    02:00 +35°C° 0 mm 4 mps 736 mmHg 43%
    03:00 +35°C° 0 mm 4 mps 735 mmHg 43%
    04:00 +35°C° 0 mm 5 mps 735 mmHg 42%
    05:00 +35°C° 0 mm 6 mps 735 mmHg 42%
    06:00 +35°C° 0 mm 6 mps 735 mmHg 43%
    07:00 +35°C° 0 mm 6 mps 736 mmHg 44%
    08:00 +35°C° 0 mm 6 mps 736 mmHg 46%
    09:00 +38°C° 0 mm 6 mps 736 mmHg 41%
    10:00 +40°C° 0 mm 7 mps 736 mmHg 37%
    11:00 +43°C° 0 mm 8 mps 736 mmHg 32%
    12:00 +44°C° 0 mm 8 mps 736 mmHg 30%
    13:00 +45°C° 0 mm 8 mps 735 mmHg 27%
    14:00 +46°C° 0 mm 8 mps 735 mmHg 25%
    15:00 +47°C° 0 mm 7 mps 734 mmHg 25%
    16:00 +47°C° 0 mm 6 mps 734 mmHg 25%
    17:00 +47°C° 0 mm 5 mps 733 mmHg 25%
    18:00 +44°C° 0 mm 4 mps 734 mmHg 27%
    19:00 +42°C° 0 mm 3 mps 734 mmHg 29%
    20:00 +39°C° 0 mm 3 mps 735 mmHg 31%
    21:00 +38°C° 0 mm 3 mps 735 mmHg 34%
    22:00 +37°C° 0 mm 3 mps 735 mmHg 36%
    23:00 +37°C° 0 mm 3 mps 735 mmHg 38%

    26 January, Saturday

    Time Temperature Precipitation Wind Pressure Humidity
    00:00 +36°C° 0 mm 3 mps 735 mmHg 42%
    01:00 +35°C° 0 mm 2 mps 735 mmHg 46%
    02:00 +34°C° 0 mm 2 mps 735 mmHg 50%
    03:00 +32°C° 0.4 mm 2 mps 735 mmHg 55%
    04:00 +31°C° 0.4 mm 2 mps 735 mmHg 60%
    05:00 +30°C° 0.4 mm 2 mps 735 mmHg 65%
    06:00 +30°C° 0.8 mm 3 mps 736 mmHg 65%
    07:00 +31°C° 0.8 mm 3 mps 737 mmHg 66%
    08:00 +32°C° 0.8 mm 4 mps 737 mmHg 66%
    09:00 +34°C° 0 mm 4 mps 737 mmHg 58%
    10:00 +36°C° 0 mm 4 mps 738 mmHg 50%
    11:00 +40°C° 0 mm 5 mps 738 mmHg 42%
    12:00 +41°C° 0 mm 4 mps 737 mmHg 39%
    13:00 +42°C° 0 mm 4 mps 737 mmHg 35%
    14:00 +43°C° 0 mm 3 mps 737 mmHg 32%
    15:00 +44°C° 0 mm 3 mps 736 mmHg 32%
    16:00 +43°C° 0 mm 2 mps 736 mmHg 31%
    17:00 +43°C° 0 mm 1 mps 736 mmHg 31%
    18:00 +40°C° 0.3 mm 3 mps 736 mmHg 40%
    19:00 +37°C° 0.3 mm 4 mps 736 mmHg 48%
    20:00 +34°C° 0.3 mm 5 mps 737 mmHg 57%
    21:00 +33°C° 0.5 mm 4 mps 738 mmHg 63%
    22:00 +31°C° 0.5 mm 3 mps 738 mmHg 68%
    23:00 +30°C° 0.5 mm 3 mps 739 mmHg 73%
    Show more